Location: Bailleul
(50.3375°N, 2.8513°E)
Time: 08:39:55
(UTC+00:00)

SL-8 R/B - Pass Details

Date: 16 June 2021
Orbit: 656 x 667 km, 48.4° (Epoch: 26 July)

Event Time Altitude Azimuth Distance (km) Brightness Sun altitude
Rises 21:30:52 0° 279° (W) 2,993 7.7 -10.2°
Reaches altitude 10° 21:33:17 10° 274° (W) 2,078 6.8 -10.4°
Maximum altitude 21:37:54 49° 200° (SSW) 847 4.0 -10.7°
Enters shadow 21:41:55 13° 128° (SE) 1,852 5.4 -11.1°
